This demonstration page uses our WeatherBlox Daily Observations layout. Learn more.

Left ArrowRight Arrow

44.89941, -97.11507

Hourly Observations for April 7, 2016

Temp ( °F °C ) Dew Point ( °F °C ) Humidity (%) Winds ( mph kmh ) Pressure ( in mb ) Visibility ( mi km ) Precip ( " mm )
12:28 am 00:28 Cloudy 35 1.7 32 0 89 89 WSW 6 9 29.85 1011 10 16 0.00 0.00
12:53 am 00:53 Cloudy 36 2.2 33 0.6 89 89 WSW 5 7 29.83 1010 10 16 0.00 0.00
1:17 am 01:17 Mostly Cloudy 34 1.1 32 0 92 92 WSW 7 11 29.83 1010 10 16 0.00 0.00
1:53 am 01:53 Mostly Cloudy 34 1.1 31 -0.6 89 89 WSW 5 7 29.81 1009 10 16 0.00 0.00
2:15 am 02:15 Mostly Cloudy 34 1.1 32 0 92 92 W 8 13 29.83 1010 9 14 0.00 0.00
2:22 am 02:22 Cloudy 34 1.1 32 0 92 92 W 6 9 29.83 1010 9 14 0.00 0.00
2:43 am 02:43 Cloudy with Mist and Fog 34 1.1 32 0 92 92 W 10 17 29.83 1010 2 3 0.00 0.00
2:51 am 02:51 Cloudy with Mist and Fog 34 1 32 0 93 93 WSW 10 17 29.83 1010 1 2 0.00 0.00
2:53 am 02:53 Cloudy with Mist and Fog 34 1.1 32 0 92 92 W 9 15 29.81 1010 1 2 0.00 0.00
2:58 am 02:58 Cloudy with Mist and Fog 34 1.1 32 0 92 92 W 9 15 29.83 1010 2 3 0.00 0.00
3:16 am 03:16 Cloudy with Mist and Fog 34 1.1 32 0 92 92 W 12 19 29.83 1010 2 3 0.00 0.00
3:24 am 03:24 Cloudy with Mist and Fog 35 1.7 33 0.6 93 93 W 12 19 29.83 1010 2 3 0.00 0.00
3:39 am 03:39 Cloudy 36 2.2 34 1.1 93 93 WNW 9 15 29.83 1010 9 14 0.00 0.00
3:53 am 03:53 Cloudy 37 2.8 34 1.1 89 89 W 13 20 29.80 1009 10 16 0.00 0.00
4:53 am 04:53 Mostly Cloudy 37 2.8 34 1.1 89 89 WNW 10 17 29.80 1009 10 16 0.00 0.00
5:53 am 05:53 Mostly Cloudy 39 3.9 34 1.1 82 82 NW 16 26 29.80 1009 10 16 0.00 0.00
6:53 am 06:53 Mostly Cloudy 39 3.9 34 1.1 82 82 NW 22 35 29.83 1010 10 16 0.00 0.00
7:53 am 07:53 Cloudy 39 3.9 33 0.6 79 79 NW 23 37 29.84 1010 10 16 0.00 0.00
8:53 am 08:53 Cloudy 38 3.3 33 0.6 83 83 NW 22 35 29.87 1011 10 16 0.00 0.00
9:26 am 09:26 Cloudy 38 3.3 33 0.6 83 83 NW 25 41 29.88 1012 10 16 0.00 0.00
9:34 am 09:34 Cloudy 38 3.3 33 0.6 83 83 NNW 23 37 29.88 1012 10 16 0.00 0.00
9:53 am 09:53 Cloudy 37 2.8 33 0.6 86 86 NNW 23 37 29.90 1013 9 14 0.00 0.00
10:53 am 10:53 Cloudy 37 2.8 32 0 82 82 NNW 29 46 29.93 1014 10 16 0.00 0.00
11:53 am 11:53 Cloudy 37 2.8 31 -0.6 79 79 NNW 24 39 29.98 1015 9 14 0.00 0.00
12:11 pm 12:11 Windy with Snow Likely 36 2.2 32 0 86 86 NNW 21 33 30.03 1017 6 10 0.00 0.03
12:53 pm 12:53 Cloudy 37 2.8 30 -1.1 76 76 NNW 26 43 30.00 1016 10 16 0.00 0.03
1:53 pm 13:53 Cloudy 37 2.8 29 -1.7 73 73 NNW 25 41 30.02 1017 10 16 0.00 0.00
2:53 pm 14:53 Cloudy 38 3.3 27 -2.8 65 65 NNW 25 41 30.04 1017 10 16 0.00 0.00
3:33 pm 15:33 Cloudy 40 4.4 27 -2.8 60 60 NNW 26 43 30.03 1017 10 16 0.00 0.00
3:46 pm 15:46 Cloudy 40 4.4 27 -2.8 60 60 NNW 25 41 30.03 1017 10 16 0.00 0.00
3:53 pm 15:53 Cloudy 41 5 26 -3.3 55 55 NNW 26 43 30.03 1017 10 16 0.00 0.00
4:53 pm 16:53 Cloudy 43 6.1 25 -3.9 49 49 NNW 25 41 30.03 1017 10 16 0.00 0.00
5:53 pm 17:53 Partly Cloudy 43 6.1 24 -4.4 47 47 N 26 43 30.04 1017 10 16 0.00 0.00
6:53 pm 18:53 Partly Cloudy 41 5 25 -3.9 53 53 NNW 22 35 30.05 1018 10 16 0.00 0.00
7:53 pm 19:53 Sunny 38 3.3 24 -4.4 57 57 NNW 20 31 30.06 1018 10 16 0.00 0.00
8:53 pm 20:53 Cloudy 37 2.8 24 -4.4 59 59 N 16 26 30.09 1019 10 16 0.00 0.00
9:53 pm 21:53 Cloudy 35 1.7 24 -4.4 64 64 N 13 20 30.11 1020 10 16 0.00 0.00
10:53 pm 22:53 Cloudy 35 1.7 24 -4.4 64 64 N 10 17 30.12 1020 10 16 0.00 0.00
11:53 pm 23:53 Cloudy 33 0.6 24 -4.4 70 70 N 6 9 30.11 1020 10 16 0.00 0.00

Powered by AerisWeather